Monterey, CA

2:56 PM PDT on April 26, 2017 (GMT -0700)
Monterey Peninsula

Weather History for KMRY - January, 2012

Change the Weather History Date:

Friday, January 20, 2012

  Actual Average Record
Temperature  
Mean Temperature 56 °F 51 °F  
Max Temperature 62 °F 59 °F 77 °F (2013)
Min Temperature 50 °F 43 °F 35 °F (2007)
Degree Days  
Heating Degree Days 9    
Month to date heating degree days 286  
Since 1 July heating degree days 1654  
Cooling Degree Days 0    
Month to date cooling degree days 0  
Year to date cooling degree days 0  
Growing Degree Days 6 (Base 50)    
Moisture  
Dew Point 54 °F    
Average Humidity 88    
Maximum Humidity 93    
Minimum Humidity 83    
Precipitation  
Precipitation 0.61 in - 0.68 in (2017)
Month to date precipitation 0.67  
Year to date precipitation 0.67  
Since 1 July precipitation 4.47  
Sea Level Pressure  
Sea Level Pressure 29.98 in    
Wind  
Wind Speed 7 mph (SSE)    
Max Wind Speed 25 mph    
Max Gust Speed 41 mph    
Visibility 7 miles    
Events Rain    
T = Trace of Precipitation, MM = Missing Value Source: NWS Daily Summary

Daily Weather History Graph

Daily Weather History Graph

Search for Another Location

Airport or City:

Trip Planner

Search our weather history database for the weather conditions in past years. The results will help you decide how hot, cold, wet, or windy it might be!

Date:

Astronomy

Jan. 20, 2012 Rise Set
Actual Time 7:16 AM PST 5:20 PM PST
Civil Twilight 6:49 AM PST 5:47 PM PST
Nautical Twilight 6:17 AM PST 6:19 PM PST
Astronomical Twilight 5:46 AM PST 6:50 PM PST
Moon 4:57 AM PST (1/20) 2:59 PM PST (1/20)
Length of Visible Light 10h 58m
Length of Day
10h 03m
Waning Crescent, 7% of the Moon is Illuminated
Jan 20
Waning Crescent
Jan 22
New
Jan 30
First Quarter
Feb 7
Full
Feb 14
Last Quarter

Hourly Weather History & Observations

Time (PST) Temp. Dew Point Humidity Pressure Visibility Wind Dir Wind Speed Gust Speed Precip Events Conditions
12:54 AM 51.1 °F 46.9 °F 86% 30.13 in 10.0 mi Calm Calm - N/A   Overcast
1:41 AM 50.0 °F 46.4 °F 87% 30.08 in 10.0 mi ENE 3.5 mph - N/A   Overcast
1:54 AM 50.0 °F 46.9 °F 89% 30.12 in 10.0 mi Calm Calm - N/A   Overcast
2:54 AM 50.0 °F 46.9 °F 89% 30.12 in 10.0 mi Calm Calm - N/A   Overcast
3:54 AM 50.0 °F 48.0 °F 93% 30.10 in 10.0 mi East 3.5 mph - N/A   Overcast
4:54 AM 51.1 °F 48.0 °F 89% 30.09 in 10.0 mi Calm Calm - 0.00 in   Overcast
5:54 AM 51.1 °F 48.9 °F 92% 30.09 in 7.0 mi Calm Calm - 0.00 in   Overcast
6:54 AM 51.1 °F 48.0 °F 89% 30.09 in 5.0 mi East 3.5 mph - 0.00 in Rain Light Rain
7:54 AM 52.0 °F 48.9 °F 89% 30.10 in 4.0 mi East 5.8 mph - 0.03 in Rain Light Rain
8:54 AM 54.0 °F 51.1 °F 90% 30.11 in 10.0 mi Calm Calm - 0.01 in   Overcast
9:54 AM 55.9 °F 53.1 °F 90% 30.12 in 3.0 mi Calm Calm - 0.02 in Rain Light Rain
10:54 AM 57.9 °F 55.0 °F 90% 30.11 in 5.0 mi Calm Calm - 0.00 in Rain Light Rain
11:03 AM 59.0 °F 55.4 °F 88% 30.07 in 5.0 mi NE 3.5 mph - 0.01 in Rain Light Rain
11:54 AM 61.0 °F 57.0 °F 87% 30.08 in 10.0 mi Calm Calm - 0.01 in   Overcast
12:30 PM 59.0 °F 55.4 °F 88% 30.02 in 2.0 mi Calm Calm - 0.01 in Rain Light Rain
12:46 PM 60.8 °F 57.2 °F 88% 30.01 in 4.0 mi Calm Calm - 0.02 in Rain Light Rain
12:54 PM 60.1 °F 57.0 °F 90% 30.04 in 5.0 mi Calm Calm - 0.02 in   Overcast
1:54 PM 61.0 °F 55.9 °F 83% 30.02 in 10.0 mi South 6.9 mph - 0.00 in Rain Light Rain
2:11 PM 60.8 °F 55.4 °F 82% 29.98 in 10.0 mi WSW 4.6 mph - N/A   Overcast
2:18 PM 59.0 °F 55.4 °F 88% 29.97 in 4.0 mi WSW 4.6 mph - 0.00 in Rain Rain
2:54 PM 60.1 °F 55.9 °F 86% 30.00 in 7.0 mi ESE 3.5 mph - 0.00 in   Overcast
3:11 PM 60.8 °F 55.4 °F 82% 29.96 in 9.0 mi SSE 9.2 mph 17.3 mph 0.01 in Rain Light Rain
3:37 PM 60.8 °F 55.4 °F 82% 29.96 in 2.5 mi SSE 8.1 mph - N/A Rain Rain
3:52 PM 60.8 °F 55.4 °F 82% 29.95 in 9.0 mi SSE 10.4 mph - 0.03 in Rain Light Rain
3:54 PM 61.0 °F 55.0 °F 81% 29.99 in 7.0 mi SSE 8.1 mph - 0.03 in Rain Light Rain
4:20 PM 60.8 °F 55.4 °F 82% 29.94 in 9.0 mi SSE 12.7 mph 19.6 mph 0.00 in Rain Light Rain
4:54 PM 61.0 °F 55.0 °F 81% 29.97 in 10.0 mi SSE 15.0 mph 21.9 mph 0.00 in   Overcast
5:41 PM 62.6 °F 55.4 °F 77% 29.92 in 10.0 mi SSE 16.1 mph 24.2 mph 0.02 in Rain Light Rain
5:54 PM 60.8 °F 55.4 °F 82% 29.91 in 10.0 mi SSE 17.3 mph 25.3 mph N/A   Overcast
6:06 PM 60.8 °F 55.4 °F 82% 29.90 in 10.0 mi SSE 16.1 mph 25.3 mph N/A   Overcast
6:20 PM 60.8 °F 55.4 °F 82% 29.88 in 10.0 mi SE 19.6 mph 27.6 mph 0.00 in   Mostly Cloudy
6:52 PM 60.8 °F 55.4 °F 82% 29.87 in 10.0 mi SE 18.4 mph 25.3 mph 0.00 in   Overcast
6:54 PM 61.0 °F 55.0 °F 81% 29.91 in 10.0 mi SE 19.6 mph 25.3 mph 0.00 in   Overcast
7:54 PM 61.0 °F 54.0 °F 78% 29.90 in 8.0 mi SSE 13.8 mph 25.3 mph 0.00 in Rain Light Rain
8:08 PM 60.8 °F 55.4 °F 82% 29.86 in 10.0 mi SSE 15.0 mph - 0.00 in Rain Light Rain
8:54 PM 61.0 °F 55.0 °F 81% 29.89 in 7.0 mi SSE 15.0 mph 26.5 mph 0.01 in Rain Light Rain
9:26 PM 60.8 °F 55.4 °F 82% 29.86 in 6.0 mi SSE 16.1 mph 29.9 mph 0.04 in Rain Light Rain
9:35 PM 60.8 °F 55.4 °F 82% 29.85 in 5.0 mi SSE 17.3 mph 31.1 mph 0.04 in Rain Light Rain
9:54 PM 60.1 °F 55.0 °F 83% 29.88 in 4.0 mi South 10.4 mph 26.5 mph 0.09 in Rain Rain
10:54 PM 60.1 °F 55.0 °F 83% 29.85 in 5.0 mi SSE 21.9 mph 33.4 mph 0.17 in Rain Rain
11:39 PM 60.8 °F 55.4 °F 82% 29.82 in 2.5 mi South 19.6 mph 34.5 mph 0.16 in Rain Heavy Rain
11:49 PM 60.8 °F 55.4 °F 82% 29.80 in 5.0 mi South 13.8 mph 41.4 mph 0.18 in Rain Rain
11:54 PM 61.0 °F 55.0 °F 81% 29.84 in 6.0 mi South 17.3 mph 35.7 mph 0.19 in Rain Rain